S-NET D (43186 NORAD) Tracking and Keplerian Element Data

This shows tracking and keplerian element data for the satellite.

Feedback or suggestion? Click here.




ElementValue
Catalog43186
NameS-NET D
Epoch Orbit6182
Epoch Day80.70339477
Epoch Year2019
RAAN350.4268
Inclination97.7152
Eccentricity0.0009699
Argument of Perigee310.127
Mean Anonmoly49.9101
Mean Motion14.96600949
Decay Rate5.45E-06
L11 43186U 18014G 19080.70339477 .00000545 00000-0 52887-4 0 9992
L22 43186 97.7152 350.4268 0009699 310.1270 49.9101 14.96600949 61829

Live tracking and technical data element details for S-NET D (NORAD 43186). S-NET D can be tracked NOW for your location showing map with azimuth and elevation plus other details from your city location.

Track the satellite on the map from your city or location and see movement details for azimuth, elevation, latitude, longitude, range, height, and movement on the map or in text.







IsCatalogInMostPopularTable: catalog: 43186, numindb: 207
Update: records affected: 1



GetName: 43186 S-NET D

Hit Count: updated at: Sat, 23 Mar 2019 02:08:09 GMT